Weather History for Hamilton, OH

Change the Weather History Date:

Tuesday, April 9, 2013

  Actual Average (KCVG) Record (KCVG)
Temperature  
Mean Temperature 65 °F 52 °F  
Max Temperature 82 °F 63 °F 85 °F (2001)
Min Temperature 48 °F 42 °F 15 °F (1997)
Degree Days  
Heating Degree Days 0 13  
Month to date heating degree days 132  
Since 1 July heating degree days 4625  
Cooling Degree Days 0 0  
Month to date cooling degree days 0  
Year to date cooling degree days 0  
Growing Degree Days 15 (Base 50)    
Moisture  
Dew Point 54 °F    
Average Humidity 64    
Maximum Humidity 96    
Minimum Humidity 38    
Precipitation  
Precipitation 0.00 in 0.13 in 2.02 in (1942)
Month to date precipitation 1.14  
Year to date precipitation 10.91  
Snow  
Snow 0.00 in 0.00 in 0.40 in (1982)
Month to date snowfall 0.3  
Since 1 July snowfall 21.9  
Snow Depth -    
Sea Level Pressure  
Sea Level Pressure 29.99 in    
Wind  
Wind Speed 5 mph (South)    
Max Wind Speed 16 mph    
Max Gust Speed 30 mph    
Visibility 10 miles    
Events      
T = Trace of Precipitation, MM = Missing Value Source: NWS Daily Summary

Daily Weather History Graph

Daily Weather History Graph

Search for Another Location

Airport:

Trip Planner

Search our weather history database for the weather conditions in past years. The results will help you decide how hot, cold, wet, or windy it might be!

Date:

Astronomy

Apr. 09, 2013 Rise Set
Actual Time 7:09 AM EDT 8:10 PM EDT
Civil Twilight 6:42 AM EDT 8:37 PM EDT
Nautical Twilight 6:09 AM EDT 9:10 PM EDT
Astronomical Twilight 5:35 AM EDT 9:44 PM EDT
Moon 6:31 AM EDT (4/9) 7:44 PM EDT (4/9)
Length of Visible Light 13h 55m
Length of Day
13h 00m
Waning Crescent, 1% of the Moon is Illuminated
Apr 9
Waning Crescent
Apr 10
New
Apr 18
First Quarter
Apr 25
Full
May 2
Last Quarter

Hourly Weather History & Observations

Time (EDT) Temp. Heat Index Dew Point Humidity Pressure Visibility Wind Dir Wind Speed Gust Speed Precip Events Conditions
12:53 AM 55.0 °F - 51.1 °F 86% 30.01 in 10.0 mi Calm Calm - N/A   Clear
1:53 AM 53.1 °F - 50.0 °F 89% 30.02 in 10.0 mi Calm Calm - N/A   Clear
2:53 AM 51.1 °F - 48.9 °F 92% 30.01 in 10.0 mi Calm Calm - N/A   Clear
3:53 AM 48.9 °F - 46.9 °F 93% 30.01 in 10.0 mi Calm Calm - N/A   Clear
4:53 AM 48.0 °F - 46.0 °F 93% 30.02 in 10.0 mi East 3.5 mph - N/A   Clear
5:53 AM 50.0 °F - 48.9 °F 96% 30.03 in 10.0 mi Calm Calm - N/A   Scattered Clouds
6:53 AM 52.0 °F - 50.0 °F 93% 30.04 in 10.0 mi East 3.5 mph - N/A   Mostly Cloudy
7:53 AM 55.0 °F - 51.1 °F 86% 30.05 in 10.0 mi East 3.5 mph - N/A   Clear
8:53 AM 62.1 °F - 54.0 °F 75% 30.05 in 10.0 mi East 4.6 mph - N/A   Scattered Clouds
9:53 AM 69.1 °F - 54.0 °F 58% 30.05 in 10.0 mi SSW 4.6 mph - N/A   Mostly Cloudy
10:53 AM 73.0 °F - 55.9 °F 55% 30.04 in 10.0 mi SSW 6.9 mph - N/A   Mostly Cloudy
11:53 AM 79.0 °F - 57.9 °F 48% 30.02 in 10.0 mi SSW 13.8 mph 20.7 mph N/A   Clear
12:53 PM 80.1 °F 80.4 °F 57.0 °F 45% 30.00 in 10.0 mi SSW 10.4 mph 21.9 mph N/A   Scattered Clouds
1:53 PM 82.0 °F 81.7 °F 57.0 °F 42% 29.98 in 10.0 mi South 16.1 mph 29.9 mph N/A   Mostly Cloudy
2:53 PM 81.0 °F 80.8 °F 55.9 °F 42% 29.96 in 10.0 mi SSW 16.1 mph 29.9 mph N/A   Scattered Clouds
3:53 PM 82.0 °F 81.3 °F 54.0 °F 38% 29.93 in 10.0 mi SSW 15.0 mph 29.9 mph N/A   Partly Cloudy
4:53 PM 82.9 °F 82.1 °F 55.9 °F 39% 29.93 in 10.0 mi SSW 9.2 mph 23.0 mph N/A   Partly Cloudy
5:53 PM 81.0 °F 80.7 °F 55.0 °F 41% 29.94 in 10.0 mi SSW 13.8 mph 25.3 mph N/A   Clear
6:53 PM 80.1 °F 80.1 °F 55.0 °F 42% 29.94 in 10.0 mi SSW 10.4 mph 17.3 mph N/A   Clear
7:53 PM 77.0 °F - 55.0 °F 47% 29.94 in 10.0 mi SSW 5.8 mph - N/A   Clear
8:53 PM 73.0 °F - 55.0 °F 53% 29.94 in 10.0 mi SSE 3.5 mph - N/A   Clear
9:53 PM 73.0 °F - 55.9 °F 55% 29.95 in 10.0 mi South 6.9 mph - N/A   Clear
10:53 PM 73.0 °F - 57.9 °F 59% 29.96 in 10.0 mi SSW 8.1 mph 16.1 mph N/A   Clear
11:53 PM 71.1 °F - 57.9 °F 63% 29.97 in 10.0 mi SW 9.2 mph - N/A   Clear